Regional Weather Roundup
Issued by NWS

Home | Current Version | Previous Version | Graphics & Text | Print | Product List | Glossary On
Versions: 1 2 3 4 5 6 7 8 9 10 11 12 13 14 15 16 17 18 19 20 21 22 23 24 25 26 27 28 29 30 31 32 33 34 35 36 37 38 39 40 41 42 43 44 45 46 47 48 49 50
000
ASUS43 KLSX 041257
RWRMO

WEATHER SUMMARY FOR MISSOURI
NATIONAL WEATHER SERVICE SPRINGFIELD MO
800 AM CDT WED MAY 04 2016

NOTE: "FAIR" INDICATES FEW OR NO CLOUDS BELOW 12,000 FEET WITH NO
       SIGNIFICANT WEATHER AND/OR OBSTRUCTIONS TO VISIBILITY.
       CURRENT SKY AND/OR WEATHER CONDITIONS ARE NOT AVAILABLE FOR
       CHILLICOTHE AND FARMINGTON.

MOZ001>031-035>038-043-044-053-054-041400-
...NORTHERN AND WESTERN MISSOURI...

CITY           SKY/WX    TMP DP  RH WIND       PRES   REMARKS
KANSAS CTY INT SUNNY     56  40  55 N12       29.91R
LEE`S SUMMIT   SUNNY     57  41  55 N14       29.90R
ST JOSEPH      SUNNY     55  38  52 N13       29.93R
CHILLICOTHE      N/A     56  41  57 N9        29.89R

$$
MOZ066>068-077>081-088>096-101>105-041400-
...SOUTHWEST MISSOURI...

CITY           SKY/WX    TMP DP  RH WIND       PRES   REMARKS
SPRINGFIELD    SUNNY     57  44  62 W13       29.87S
JOPLIN         SUNNY     57  46  66 W12       29.93R
BRANSON        SUNNY     55  46  71 W7        29.91S

$$
MOZ032>034-039>042-045>050-055>058-069>072-041400-
...CENTRAL MISSOURI...

CITY           SKY/WX    TMP DP  RH WIND       PRES   REMARKS
COLUMBIA       NOT AVBL
JEFFERSON CITY SUNNY     59  46  62 NW13      29.80R
ROLLA          PTSUNNY   56  46  69 W14       29.78S
SEDALIA        SUNNY     58  45  62 NW14      29.85R
WARRENSBURG    SUNNY     57  43  58 NW9       29.87R

$$
MOZ051-052-059>065-041400-
...EAST CENTRAL MISSOURI...

CITY           SKY/WX    TMP DP  RH WIND       PRES   REMARKS
ST LOUIS INTL  MOSUNNY   61  47  59 W9        29.73R

$$
MOZ072>076-082>087-097>100-106>115-041400-
...SOUTH CENTRAL AND SOUTHEAST MISSOURI...

CITY           SKY/WX    TMP DP  RH WIND       PRES   REMARKS
CAPE GIRARDEAU PTSUNNY   54  46  74 SW16G24   29.77F
POPLAR BLUFF   SUNNY     53  45  74 SW6       29.81F
WEST PLAINS    MOSUNNY   51  43  74 W12       29.85F

$$


USA.gov is the U.S. government's official web portal to all federal, state and local government web resources and services.